Track SSETI-EXPRESS now! 10-day predictions SSETI-EXPRESS is classified as:
1 28894U 05043E 24325.81358247 .00001450 00000-0 28515-3 0 9991 2 28894 98.2309 92.0547 0015115 278.2472 81.7016 14.64080325 16335